Simultaneous Nadir Overpasses (SNOs) Predictions

Prediction of SNOs between GOES-16 and NOAA-19 Satellite Orbit:

Table of predicted SNOs for the next 14.0 days since TLE Epoch: 6/20/2020
Index Date Time (GOES-16) GOES-16 Lat,Lon NOAA-19 Lat,Lon Distance(km) Time Diff (sec)
1 06/20/2020 11:04:49 0.04, -75.21 0.45, -77.03 208.59 80
2 06/21/2020 10:50:27 0.03, -75.21 -0.18, -74.17 117.50 80
3 06/22/2020 10:38:47 0.03, -75.21 -0.86, -71.33 443.53 80
4 06/23/2020 23:11:37 -0.02, -75.21 -0.93, -79.19 453.60 80
5 06/24/2020 22:59:56 -0.02, -75.22 -0.29, -76.33 127.06 80
6 06/25/2020 22:50:55 -0.02, -75.22 0.41, -73.48 199.72 80
7 06/28/2020 11:11:46 0.02, -75.26 0.76, -78.40 358.88 80
8 06/29/2020 11:00:06 0.02, -75.27 0.07, -75.56 31.80 80
9 06/30/2020 10:45:44 0.02, -75.29 -0.56, -72.70 295.43 80
10 07/02/2020 23:09:32 -0.01, -75.31 -0.55, -77.70 272.23 80
11 07/03/2020 22:57:50 -0.00, -75.33 0.10, -74.84 55.42 80




NCC Satellite Simultaneous Nadir Overpasses (SNOs) Prediction Service
